Weather History for New Delhi, India

Change the Weather History Date:

Monday, August 25, 2014

  Actual Average Record
Temperature  
Mean Temperature 94 °F -  
Max Temperature 104 °F 91 °F 104 °F (2014)
Min Temperature 84 °F 76 °F 77 °F (1997)
Cooling Degree Days 29    
Growing Degree Days 44 (Base 50)    
Moisture  
Dew Point 70 °F    
Average Humidity 49    
Maximum Humidity 70    
Minimum Humidity 27    
Precipitation  
Precipitation 0.00 in - - ()
Sea Level Pressure  
Sea Level Pressure 29.67 in    
Wind  
Wind Speed 6 mph ()    
Max Wind Speed 13 mph    
Max Gust Speed -    
Visibility 2.6 miles    
Events      
Averages and records for this station are not official NWS values.
T = Trace of Precipitation, MM = Missing Value Source: Averaged Metar Reports

Daily Weather History Graph

Daily Weather History Graph

Search for Another Location

Airport:

Trip Planner

Search our weather history database for the weather conditions in past years. The results will help you decide how hot, cold, wet, or windy it might be!

Date:

Astronomy

Aug. 25, 2014 Rise Set
Actual Time 5:55 AM IST 6:51 PM IST
Civil Twilight 5:31 AM IST 7:15 PM IST
Nautical Twilight 5:02 AM IST 7:43 PM IST
Astronomical Twilight 4:33 AM IST 8:13 PM IST
Moon 5:33 AM IST (8/25) 6:31 PM IST (8/25)
Length of Visible Light 13h 43m
Length of Day
12h 55m
Waning Crescent, 0% of the Moon is Illuminated
Aug 25
Waning Crescent
Aug 25
New
Sep 2
First Quarter
Sep 9
Full
Sep 16
Last Quarter

Hourly Weather History & Observations

Time (IST) Temp. Heat Index Dew Point Humidity Pressure Visibility Wind Dir Wind Speed Gust Speed Precip Events Conditions
12:00 AM 87.8 °F 92.6 °F 69.8 °F 55% 29.68 in 2.2 mi NW 5.8 mph - N/A   Haze
12:30 AM 87.8 °F 92.6 °F 69.8 °F 55% 29.68 in 2.2 mi NW 5.8 mph - N/A   Haze
1:00 AM 86.0 °F 90.4 °F 69.8 °F 58% 29.68 in 2.2 mi WSW 4.6 mph - N/A   Haze
1:30 AM 86.0 °F 91.8 °F 71.6 °F 62% 29.68 in 2.2 mi SW 5.8 mph - N/A   Haze
2:00 AM 84.2 °F 89.6 °F 71.6 °F 66% 29.68 in 2.2 mi SW 4.6 mph - N/A   Haze
2:30 AM 84.2 °F 89.6 °F 71.6 °F 66% 29.68 in 2.2 mi SW 4.6 mph - N/A   Haze
3:00 AM 84.2 °F 89.6 °F 71.6 °F 66% 29.68 in 2.2 mi SW 4.6 mph - N/A   Haze
3:30 AM 84.2 °F 89.6 °F 71.6 °F 66% 29.68 in 2.2 mi West 4.6 mph - N/A   Haze
4:00 AM 84.2 °F 90.9 °F 73.4 °F 70% 29.68 in 2.2 mi West 5.8 mph - N/A   Haze
4:30 AM 84.2 °F 90.9 °F 73.4 °F 70% 29.68 in 2.2 mi West 3.5 mph - N/A   Haze
5:00 AM 84.2 °F 90.9 °F 73.4 °F 70% 29.68 in 2.2 mi Calm Calm - N/A   Haze
5:30 AM 84.2 °F 90.9 °F 73.4 °F 70% 29.68 in - Calm Calm - N/A   Haze
6:00 AM 84.2 °F 90.9 °F 73.4 °F 70% 29.68 in - Calm Calm - N/A   Haze
7:00 AM 84.2 °F 90.9 °F 73.4 °F 70% 29.71 in 1.9 mi SW 4.6 mph - N/A   Haze
7:30 AM 86.0 °F 93.4 °F 73.4 °F 66% 29.71 in 1.9 mi WSW 6.9 mph - N/A   Haze
8:00 AM 87.8 °F 95.6 °F 73.4 °F 62% 29.71 in 1.9 mi WSW 6.9 mph - N/A   Haze
8:30 AM 87.8 °F 93.8 °F 71.6 °F 58% 29.71 in 2.2 mi West 6.9 mph - N/A   Haze
9:00 AM 89.6 °F 96.2 °F 71.6 °F 55% 29.71 in 2.2 mi West 5.8 mph - N/A   Haze
9:30 AM 91.4 °F 98.4 °F 71.6 °F 52% 29.71 in 2.2 mi WSW 5.8 mph - N/A   Haze
10:00 AM 93.2 °F 100.5 °F 71.6 °F 49% 29.71 in 2.5 mi West 5.8 mph - N/A   Haze
10:30 AM 93.2 °F 98.8 °F 69.8 °F 46% 29.71 in 2.5 mi SW 6.9 mph - N/A   Haze
11:00 AM 95.0 °F 98.5 °F 66.2 °F 39% 29.74 in 2.5 mi West 6.9 mph - N/A   Haze
11:30 AM 96.8 °F 100.7 °F 66.2 °F 37% 29.74 in 2.5 mi West 9.2 mph - N/A   Haze
12:00 PM 98.6 °F 102.8 °F 66.2 °F 35% 29.74 in 2.5 mi West 6.9 mph - N/A   Haze
12:30 PM 100.4 °F 104.9 °F 66.2 °F 33% 29.71 in 2.5 mi SW 9.2 mph - N/A   Haze
1:00 PM 100.4 °F 104.9 °F 66.2 °F 33% 29.71 in 2.5 mi West 10.4 mph - N/A   Haze
1:30 PM 100.4 °F 103.6 °F 64.4 °F 31% 29.71 in 2.8 mi NW 9.2 mph - N/A   Haze
2:00 PM 100.4 °F 104.9 °F 66.2 °F 33% 29.68 in 2.8 mi NW 10.4 mph - N/A   Haze
2:30 PM 102.2 °F 106.9 °F 66.2 °F 31% 29.65 in 2.8 mi NW 11.5 mph - N/A   Haze
3:00 PM 102.2 °F 106.9 °F 66.2 °F 31% 29.65 in 2.8 mi NW 12.7 mph - N/A   Haze
3:30 PM 104.0 °F 108.9 °F 66.2 °F 29% 29.65 in 2.8 mi WNW 11.5 mph - N/A   Haze
4:00 PM 104.0 °F 107.4 °F 64.4 °F 27% 29.62 in - WNW 12.7 mph - N/A   Haze
4:30 PM 104.0 °F 107.4 °F 64.4 °F 27% 29.62 in - NW 10.4 mph - N/A   Haze
5:30 PM 102.2 °F 108.4 °F 68.0 °F 33% 29.59 in 3.1 mi NW 8.1 mph - N/A   Haze
6:00 PM 100.4 °F 106.3 °F 68.0 °F 35% 29.59 in 3.1 mi NNW 10.4 mph - N/A   Haze
6:30 PM 100.4 °F 106.3 °F 68.0 °F 35% 29.59 in 3.1 mi NNW 9.2 mph - N/A   Haze
7:00 PM 98.6 °F 104.1 °F 68.0 °F 37% 29.59 in 3.1 mi NNW 8.1 mph - N/A   Haze
7:30 PM 96.8 °F 101.8 °F 68.0 °F 39% 29.59 in 3.1 mi NNW 8.1 mph - N/A   Haze
8:00 PM 96.8 °F 101.8 °F 68.0 °F 39% 29.62 in 3.1 mi NNW 9.2 mph - N/A   Haze
8:30 PM 95.0 °F 99.5 °F 68.0 °F 41% 29.62 in 3.1 mi NNW 6.9 mph - N/A   Haze
9:00 PM 95.0 °F 99.5 °F 68.0 °F 41% 29.62 in 3.1 mi NNW 6.9 mph - N/A   Haze
9:30 PM 93.2 °F 100.5 °F 71.6 °F 49% 29.65 in 3.1 mi NW 5.8 mph - N/A   Haze
10:00 PM 93.2 °F 100.5 °F 71.6 °F 49% 29.65 in 3.1 mi NW 5.8 mph - N/A   Haze
10:30 PM 91.4 °F 98.4 °F 71.6 °F 52% 29.65 in 3.1 mi WNW 5.8 mph - N/A   Haze
11:00 PM 91.4 °F 98.4 °F 71.6 °F 52% 29.65 in 3.1 mi West 4.6 mph - N/A   Haze
11:30 PM 89.6 °F 96.2 °F 71.6 °F 55% 29.65 in 3.1 mi WSW 3.5 mph - N/A   Haze